Regional Weather Roundup
Issued by NWS

Home | Current Version | Previous Version | Text Only | Print | Product List | Glossary Off
Versions: 1 2 3 4 5 6 7 8 9 10 11 12 13 14 15 16 17 18 19 20 21 22 23 24 25 26 27 28

000
ASUS45 KPSR 172310
RWRAZ

ARIZONA HOURLY REGIONAL WEATHER ROUNDUP
NATIONAL WEATHER SERVICE PHOENIX AZ
400 PM MST FRI NOV 17 2017

NOTE: FAIR INDICATES FEW OR NO CLOUDS BELOW 12,000 FEET WITH NO
SIGNIFICANT WEATHER AND/OR OBSTRUCTIONS TO VISIBILITY.

AZZ001>003-036-180000-
NORTHWEST ARIZONA

CITY           SKY/WX    TMP DP  RH WIND       PRES   REMARKS
BULLHEAD CITY  PTSUNNY   81  41  24 SW9G15    29.87F
KINGMAN        PTSUNNY   67  38  34 SW21G26   29.99S
$$

AZZ004>008-015-016-018-180000-
NORTH CENTRAL ARIZONA

CITY           SKY/WX    TMP DP  RH WIND       PRES   REMARKS
GRAND CANYON   PTSUNNY   54  35  48 W24G39    30.01F
WILLIAMS       PTSUNNY   50  37  62 SW20G29   30.06F
PRESCOTT       CLOUDY    59  38  45 SW8       30.06S
FLAGSTAFF      CLOUDY    45  39  79 S14       30.09F
PAYSON           N/A     50  45  81 CALM      30.11S
PAGE           MOSUNNY   69  32  25 SW12G22   29.82S
$$

AZZ009>014-017-180000-
NORTHEAST ARIZONA

CITY           SKY/WX    TMP DP  RH WIND       PRES   REMARKS
WINSLOW        CLOUDY    62  36  37 SW24G33   30.01F
SAINT JOHNS    CLOUDY    58  38  47 W25G35    30.05R
WINDOW ROCK    CLOUDY    49  43  80 SW9       30.03F
SHOW LOW       PTSUNNY   55  36  47 SW22      30.11F
$$

AZZ540-542>544-546-548-180000-
GREATER PHOENIX AREA

CITY           SKY/WX    TMP DP  RH WIND       PRES   REMARKS
PHOENIX        PTSUNNY   78  37  22 N3        29.92F
BUCKEYE        CLOUDY    77 N/A N/A NW8       29.93S
GLENDALE       CLOUDY    75  39  27 CALM      29.94F
LUKE AFB       PTSUNNY   73  44  36 NW6       29.92S
DEER VALLEY    CLOUDY    74  39  28 NW5       29.94F
SCOTTSDALE     CLOUDY    76  40  27 CALM      29.96F
MESA-FALCON    PTSUNNY   79  36  21 VRB5      29.95F
MESA-GATEWAY   PTSUNNY   79  36  21 CALM      29.95F
CHANDLER       PTSUNNY   79  34  19 VRB5      29.93F
$$

AZZ539-553-180000-
SOUTHWEST MARICOPA COUNTY AND PINAL COUNTY

CITY           SKY/WX    TMP DP  RH WIND       PRES   REMARKS
CASA GRANDE    NOT AVBL
GILA BEND      PTSUNNY   84  37  18 W10       29.91F
$$

AZZ503-504-507>509-180000-
SOUTHEAST ARIZONA

CITY           SKY/WX    TMP DP  RH WIND       PRES   REMARKS
TUCSON         SUNNY     82  24  12 NW17G26   29.99F
DAVIS-MONTHAN  MOSUNNY   81  24  12 NW18      29.98S
RYAN FIELD     SUNNY     81  25  12 NW14G21   29.99S
NOGALES        SUNNY     78  22  12 SW12G21   30.06F
SIERRA VISTA   SUNNY     75  14  10 W16       30.09F
DOUGLAS        FAIR      78  16   9 SW17      30.04S
SAFFORD        SUNNY     80  22  11 NW28G33   29.94F
$$

AZZ532-180000-
SOUTHWEST ARIZONA

CITY           SKY/WX    TMP DP  RH WIND       PRES   REMARKS
YUMA           PTSUNNY   80  46  30 NW10      29.92F
$$

CAZ041-043-047-048-061-525>527-560>570-180000-
SOUTHERN CALIFORNIA

CITY           SKY/WX    TMP DP  RH WIND       PRES   REMARKS
DOWNTOWN L.A.  MOSUNNY   70  58  65 W7G16     30.02R
L.A. AIRPORT   PTSUNNY   67  61  81 W13       30.03S
SAN DIEGO      PTSUNNY   69  58  67 NW9       30.05S
BURBANK        MOSUNNY   73  58  59 S10       30.01S
ONTARIO        PTSUNNY   71  52  50 SW7       30.02S
RIVERSIDE      PTSUNNY   72  51  47 VRB5      30.02S
PALM SPRINGS   PTSUNNY   80  50  34 CALM      29.91F
EL CENTRO NAS  CLOUDY    80  49  33 E5        29.92F
IMPERIAL       CLOUDY    81  50  33 CALM      29.90F
BLYTHE         CLOUDY    79  48  33 SW6       29.90S
NEEDLES        PTSUNNY   81  40  23 SW9G16    29.89F
$$

NVZ020-UTZ003-180000-
SOUTHERN NEVADA-UTAH

CITY           SKY/WX    TMP DP  RH WIND       PRES   REMARKS
LAS VEGAS      PTSUNNY   76  40  27 W14G29    29.85F
SALT LAKE CITY LGT RAIN  41  34  76 N14       30.01R
$$

NMZ009-TXZ055-180000-
NEW MEXICO-WEST TEXAS

CITY           SKY/WX    TMP DP  RH WIND       PRES   REMARKS
ALBUQUERQUE    CLOUDY    66  34  30 W15       29.95S
EL PASO        PTSUNNY   80  23  12 W14       29.95S
$$


........................KEY........................
SKY/WX - SKY CONDITION/WEATHER
TMP    - TEMPERATURE IN FAHRENHEIT
DP     - DEW POINT IN FAHRENHEIT
RH     - RELATIVE HUMIDITY IN PERCENT
WIND   - DIRECTION AND SPEED IN MILES PER HOUR (MPH)
VRB    - VARIABLE WIND DIRECTION
PRES   - MEAN SEA LEVEL PRESSURE IN INCHES OF MERCURY
         F - FALLING PRESSURE   R - RISING PRESSURE
         S - STEADY PRESSURE
VSB    - VISIBILITY IN MILES
HX     - HEAT INDEX IN FAHRENHEIT
WCI    - WIND CHILL INDEX IN FAHRENHEIT
TC     - TEMPERATURE IN CELSIUS WHICH IS ALSO KNOWN AS
         TEMPERATURE IN CENTIGRADE
AFB    - AIR FORCE BASE
         LUKE AFB IS LUKE AIR FORCE BASE
         DAVIS-MONTHAN IS DAVIS-MONTHAN AIR FORCE BASE
NAS    - NAVAL AIR STATION
         EL CENTRO NAS IS EL CENTRO NAVAL AIR STATION
N/A    - NOT AVAILABLE





USA.gov is the U.S. government's official web portal to all federal, state and local government web resources and services.